Weather Roundup
Issued by NWS Chicago, IL

Home | Current Version | Previous Version | Graphics & Text | Print | Product List | Glossary On
Versions: 1 2 3 4 5 6 7 8 9 10 11 12 13 14 15 16 17 18 19 20 21 22 23 24 25 26 27 28 29 30 31 32 33 34 35 36 37 38 39 40 41 42 43 44 45 46 47 48 49 50
000
NZUS59 KLOT 221621
HRRLOT

CHICAGO AREA WEATHER ROUNDUP
NATIONAL WEATHER SERVICE CHICAGO/ROMEOVILLE IL
1100 AM CDT FRI MAY 22 2015

NOTE: "FAIR" INDICATES FEW OR NO CLOUDS BELOW 12,000 FEET WITH NO
SIGNIFICANT WEATHER AND/OR OBSTRUCTIONS TO VISIBILITY.

* THESE STATIONS ARE NOT UNDER NWS QUALITY CONTROL. THEY ALSO MAY NOT
  REPORT WEATHER SUCH AS PRECIPITATION OR FOG.

ILZ005-006-012>014-019>023-221700-
NORTHEAST ILLINOIS

CITY           SKY/WX    TMP DP  RH WIND       PRES   REMARKS
OHARE          MOSUNNY   61  32  33 NE10      30.22R
MIDWAY         MOSUNNY   63  42  46 E8        30.22R
AURORA         SUNNY     68  41  37 E7        30.22R
LANSING*       SUNNY     61  45  56 NE9       30.22R
JOLIET*        SUNNY     69  47  46 NE5       30.21R
WAUKEGAN       SUNNY     55  32  41 N7        30.24R
DUPAGE AIRPORT SUNNY     64  37  36 E8        30.22R
WHEELING       SUNNY     58  33  39 NE10      30.25R
KANKAKEE*      SUNNY     69  48  47 NE10      30.20R
MORRIS*        SUNNY     70  42  35 NE3       30.19R
LEWIS AIRPORT* SUNNY     66  41  40 NE5       30.21S
NORTHERLY IS     N/A     53  40  61 N13         N/A
$$

WIZ051-052-058>065-066-070>072-221700-
SOUTHEAST WISCONSIN

CITY           SKY/WX    TMP DP  RH WIND       PRES   REMARKS
MILWAUKEE      SUNNY     54  31  41 NE10      30.25R
KENOSHA*       SUNNY     58  28  32 E7        30.25R
RACINE*        SUNNY     54  32  43 NE7       30.26R
BURLINGTON     SUNNY     60  29  30 E8        30.23R
WAUKESHA       SUNNY     57  28  33 SE5       30.23S
WEST BEND      SUNNY     59  28  31 CALM      30.23S
$$

INZ001>003-010>013-019-020-221700-
NORTHWEST INDIANA

CITY           SKY/WX    TMP DP  RH WIND       PRES   REMARKS
GARY*          SUNNY     57  46  67 N7        30.23R
MICHIGAN CITY* NOT AVBL
RENSSELAER*    NOT AVBL
VALPARAISO     SUNNY     68  45  43 E7        30.21R
$$

LMZ740>746-221700-
SOUTHERN LAKE MICHIGAN

STATION/POSITION TIME  SKY/WX   TEMP WIND        PRES    VSBY
                                AIR  DIR/SP/G
                 (UTC)          (F)  (DEG/KT/KT) (MB)    (MI)
HARRISON CRIB    1600            46  360/ 11/ 12   N/A
BURNHAM HARBOR   1600            53  360/  9/ 12   N/A
CALUMET HARBOR   1500            51  340/  8/ 12   N/A
BURNS HARBOR     1500            49  340/  5/  8 1023.4R
MICHIGAN CITY    1600            50  360/ 13/ 14   N/A
$$

ABBREVIATIONS USED IN REMARKS
   TC - TEMPERATURE IN CELSIUS
  WCI - WIND CHILL INDEX
   HX - HEAT INDEX
  VSB - VISIBILITY
$$



USA.gov is the U.S. government's official web portal to all federal, state and local government web resources and services.